Regional Weather Roundup
Issued by NWS

Home | Current Version | Previous Version | Graphics & Text | Print | Product List | Glossary On
Versions: 1 2 3 4 5 6 7 8 9 10 11 12 13 14 15 16 17 18 19 20 21 22 23 24 25 26 27 28 29 30 31 32 33 34 35 36 37 38 39 40 41 42 43 44 45 46 47 48 49 50
000
ASUS43 KBIS 240610
RWRND

NORTH DAKOTA REGIONAL WEATHER ROUNDUP
NATIONAL WEATHER SERVICE BISMARCK ND
100 AM CDT WED MAY 24 2017

NOTE: "FAIR" INDICATES FEW OR NO CLOUDS BELOW 12,000 FEET WITH NO
SIGNIFICANT WEATHER AND/OR OBSTRUCTIONS TO VISIBILITY.


NDZ001>003-009>011-017-240700-
NORTHWEST NORTH DAKOTA

CITY           SKY/WX    TMP DP  RH WIND       PRES   REMARKS
WILLISTON      FAIR      58  36  43 S13       29.83F
6HR MIN TEMP:  58; 6HR MAX TEMP:  72;

MINOT          FAIR      54  37  52 SE8       29.88F
MINOT AFB      PTCLDY    52  36  54 S9        29.87F
$$

NDZ018>021-031>035-040>046-240700-
SOUTHWEST NORTH DAKOTA

CITY           SKY/WX    TMP DP  RH WIND       PRES   REMARKS
BISMARCK       FAIR      41  36  82 SE5       29.95F
6HR MIN TEMP:  41; 6HR MAX TEMP:  65;

DICKINSON      FAIR      42  33  70 SE12      29.88F
GARRISON         N/A     50  37  61 S9        29.90F
6HR MIN TEMP:  48; 6HR MAX TEMP:  65;

HETTINGER ARPT PTCLDY    47  34  60 SE8       29.93F
$$

NDZ004>008-012>016-024-026-027-054-240700-
NORTHEAST NORTH DAKOTA

CITY           SKY/WX    TMP DP  RH WIND       PRES   REMARKS
GRAND FORKS    MOCLDY    47  42  83 W5        29.91F
GRND FRKS AFB  CLOUDY    44  42  90 W3        29.91F
DEVILS LAKE    FAIR      48  42  80 CALM      29.93F
$$

NDZ022-023-025-028>030-036>039-047>053-240700-
SOUTHEAST NORTH DAKOTA

CITY           SKY/WX    TMP DP  RH WIND       PRES   REMARKS
FARGO          CLEAR     43  41  93 NE5       29.90F
6HR MIN TEMP:  43; 6HR MAX TEMP:  58;

JAMESTOWN      FAIR      39  37  92 W3        29.92F
$$





USA.gov is the U.S. government's official web portal to all federal, state and local government web resources and services.